Location: Hilde
(52.9479°N, 6.4449°E)
Time: 07:02:00
(UTC+00:00)

Daily predictions for brighter satellites

Satellite Brightness Start Highest point End
(mag) Time Altitude Azimuth Time Altitude Azimuth Time Altitude Azimuth
Cosmos 724 4.5 19:57:36 10° SW 20:03:37 83° NW 20:09:34 10° NE
NOSS 3-3 (A) 3.8 19:59:39 10° SSW 20:04:47 60° SE 20:10:59 10° NE
Cosmos 1544 Rocket 4.2 20:01:21 10° SSE 20:05:19 36° E 20:09:17 10° NNE
Cosmos 44 Rocket 4.3 20:00:40 10° WSW 20:05:43 57° NW 20:10:53 10° NE
Cosmos 1437 Rocket 3.6 20:04:41 10° SSE 20:07:45 28° E 20:10:52 10° NNE
Cosmos 2360 Rocket 2.7 20:02:23 10° NNW 20:07:56 50° NE 20:13:26 10° SE
Helios 1A Rocket 2.4 20:05:23 10° NNE 20:08:33 80° WNW 20:11:42 10° SSW
Cosmos 1452 Rocket 4.3 20:06:20 10° SW 20:11:29 58° WNW 20:16:41 10° NNE
EP 1 4.3 20:10:18 10° NW 20:12:55 74° NE 20:15:36 10° SE
CZ-4B R/B 3.8 20:08:35 10° S 20:14:10 60° WSW 20:19:43 10° NNW
Cosmos 2233 Rocket 4.0 20:09:54 10° S 20:16:06 84° E 20:22:17 10° NNE
Cosmos 1486 Rocket 4.3 20:13:20 10° NNW 20:18:33 58° ENE 20:23:45 10° SE
Cosmos 1302 Rocket 4.2 20:13:38 10° SSW 20:18:49 76° WNW 20:24:03 10° NNE
Okean-O 2.7 20:16:06 10° SSE 20:20:29 85° WSW 20:24:54 10° NNW
Cosmos 1758 Rocket 3.6 20:16:09 10° N 20:20:35 80° E 20:25:00 10° SSE
Cosmos 2219 Rocket 3.0 20:15:13 10° NNW 20:20:36 42° NE 20:25:59 10° ESE
Cosmos 909 Rocket 4.0 20:15:51 10° SSW 20:22:04 70° SE 20:28:38 10° NE
CZ-2C R/B 3.6 20:21:17 10° ESE 20:23:27 21° ENE 20:25:39 10° NNE
DNEPR-1 R/B 4.4 20:23:08 10° NW 20:28:29 85° SW 20:34:57 10° SE
Nadezhda 4 Rocket 4.5 20:23:48 10° N 20:29:41 46° ENE 20:35:27 10° SE
Meteor 1-25 Rocket 4.3 20:24:17 10° N 20:29:57 68° ENE 20:35:31 10° SSE
USA 245 4.3 20:26:15 10° SSE 20:32:06 75° ENE 20:37:30 10° NNW
IRS-1C Rocket 4.4 20:27:17 10° SE 20:32:26 58° ENE 20:37:37 10° N
Cosmos 1825 Rocket 4.4 20:29:07 10° N 20:33:08 36° ENE 20:36:52 12° SE
Cosmos 1805 3.4 20:30:41 10° N 20:33:50 42° ENE 20:36:34 13° SE
NOSS 3-3 (C) 3.7 20:31:58 10° SW 20:37:18 77° SE 20:43:47 10° NE
Cosmos 220 Rocket 4.3 20:33:43 10° S 20:37:32 41° ESE 20:41:25 10° NE
Cosmos 2322 Rocket 2.3 20:34:52 10° NNW 20:40:34 81° ENE 20:45:49 12° SE
RESURS DK-1 4.4 20:38:20 10° N 20:41:14 19° NE 20:44:08 10° E
Cosmos 1602 Rocket 3.5 20:40:13 10° N 20:44:33 81° E 20:48:44 11° SSE
USA 306 1.7 20:42:42 10° W 20:45:38 64° N 20:47:31 10° ENE
Cosmos 2082 Rocket 2.9 20:41:29 10° SW 20:47:08 60° NW 20:52:48 10° NNE
NOSS 3-4 (A) 3.9 20:41:30 10° NW 20:48:03 77° SW 20:55:06 13° SE
NOSS 3-4 (C) 3.9 20:42:07 10° NW 20:48:42 78° SW 20:55:45 13° SE
YAOGAN 11 4.2 20:46:55 10° NNE 20:51:22 82° WNW 20:55:49 10° SSW
Cosmos 1707 4.4 20:52:23 10° E 20:52:40 10° E 20:52:58 10° E
CZ-4B R/B 2.5 20:49:58 12° SSE 20:53:02 82° WSW 20:56:34 10° NNW
Cosmos 2151 3.4 20:50:44 10° NNW 20:54:47 58° W 20:58:48 10° S
Cosmos 1076 Rocket 4.1 20:53:08 10° N 20:57:14 43° ENE 21:00:20 16° SE
Cosmos 44 3.9 20:52:33 10° NW 20:57:56 60° NE 21:02:45 12° ESE
Cosmos 2098 Rocket 3.2 20:53:27 10° S 20:58:01 55° E 21:01:58 10° NNE
Cosmos 2237 Rocket 4.2 20:53:58 10° NNW 20:58:17 21° NNE 21:02:33 10° E
ATLAS 2AS CENTAUR R/B 4.3 20:52:52 10° WNW 20:59:07 36° NNW 21:05:20 10° NE
CZ-4C R/B 3.6 20:55:52 10° W 21:00:23 39° NNW 21:06:13 10° NE
Ariane Rocket 3.0 20:59:02 13° SSE 21:03:39 86° WSW 21:08:46 10° NNW
Cosmos 2278 4.3 21:02:04 10° NW 21:07:38 53° WSW 21:12:37 13° S
SL-16 R/B 3.2 21:06:18 10° NW 21:11:34 40° WSW 21:16:43 10° S
Meteor 1-5 Rocket 4.4 21:06:41 10° NNW 21:12:28 84° WSW 21:17:38 14° S
COSMOS 2428 3.7 21:07:08 10° NNW 21:12:28 38° NE 21:17:37 11° ESE
SPOT 3 Rocket 4.0 21:09:24 11° S 21:14:21 58° W 21:19:26 10° NNW
Cosmos 1763 Rocket 3.9 21:10:53 13° S 21:15:20 44° ESE 21:20:18 10° NE
USA 186 4.0 21:14:08 10° SW 21:15:57 16° W 21:17:47 10° NW
USA 290 2.2 21:18:07 18° S 21:20:15 53° ESE 21:23:20 10° NE
Cosmos 1606 Rocket 3.5 21:17:15 14° S 21:20:53 71° E 21:25:11 10° NNE
Cosmos 990 Rocket 4.0 21:17:06 10° NNW 21:22:18 86° ENE 21:26:04 19° SSE
Cosmos 1933 4.2 21:21:07 10° SSW 21:24:47 46° WNW 21:28:29 10° N
Cosmos 1464 Rocket 4.0 21:18:47 10° S 21:24:55 83° E 21:31:10 10° NNE
ISS -3.8 21:22:43 10° W 21:26:01 64° S 21:28:15 19° ESE
Helios 1B rocket 3.5 21:24:22 16° ESE 21:26:19 27° ENE 21:29:19 10° N
Cosmos 1461 3.2 21:23:15 10° WSW 21:26:55 59° NW 21:30:33 10° NE
CZ-4B R/B 4.0 21:23:15 13° S 21:27:22 52° W 21:32:09 10° NNW
BREEZE-M DEB (TANK) 1.5 21:25:54 10° WSW 21:28:11 35° S 21:28:12 35° S
Okean 1 3.0 21:25:54 20° S 21:28:17 70° E 21:31:53 10° NNE
Cosmos 1726 Rocket 3.4 21:25:49 19° S 21:28:34 61° E 21:32:35 10° NNE
COSMOS 2406 3.9 21:25:37 10° SW 21:31:16 57° NW 21:36:57 10° NNE
Terra 4.5 21:30:17 10° WSW 21:32:05 12° W 21:33:53 10° WNW
Okean O Rocket 3.9 21:31:53 10° SW 21:34:54 18° W 21:37:56 10° NW
Cosmos 1536 3.2 21:31:36 10° N 21:35:09 44° ENE 21:36:59 24° SE
GRACE-FO 1 4.4 21:34:58 22° S 21:37:07 84° W 21:40:38 10° N
GRACE-FO 2 4.4 21:35:26 22° S 21:37:35 83° W 21:41:06 10° N
Cosmos-2242 3.3 21:37:47 24° SSE 21:39:55 46° E 21:43:53 10° NNE
Cosmos 1092 Rocket 4.0 21:34:48 10° N 21:41:00 71° ENE 21:45:21 21° SSE
Cosmos 2333 Rocket 3.7 21:37:04 10° NW 21:41:51 28° WSW 21:46:30 11° SSW
KORONAS-FOTON 4.5 21:43:53 26° SE 21:44:50 31° E 21:47:53 10° NNE
Cosmos 2297 Rocket 4.0 21:46:14 12° ESE 21:47:45 13° E 21:50:21 10° ENE
Cosmos 1833 4.1 21:44:23 10° SSW 21:50:01 72° ESE 21:55:38 10° NE
Cosmos 2360 Rocket 3.2 21:46:36 10° NW 21:51:49 38° WSW 21:55:44 16° SSW
CZ-2C R/B 3.9 21:52:45 16° SW 21:54:08 22° W 21:56:24 10° NW
Cosmos 1766 2.6 21:52:18 10° NNW 21:55:32 86° W 21:56:45 35° S
Cosmos 2322 3.8 21:50:46 10° NNW 21:56:30 72° NE 22:00:18 22° SE
Cosmos 1842 3.7 21:56:49 28° ESE 21:57:21 30° E 22:00:10 10° NNE
Cosmos 1975 3.8 21:54:21 10° N 21:57:42 32° ENE 21:59:14 23° ESE
Cosmos 372 Rocket 3.9 21:57:19 10° NNW 22:02:28 86° ENE 22:05:24 26° SSE
Cosmos 2034 Rocket 4.1 21:58:36 14° SSW 22:04:07 80° W 22:10:30 10° N
Cosmos 2219 Rocket 2.8 21:59:15 10° NW 22:04:38 46° WSW 22:08:05 21° S
Cosmos 2221 3.6 22:03:18 23° ESE 22:04:43 28° E 22:08:19 10° NNE
Cosmos 1271 Rocket 3.2 22:06:21 31° ESE 22:07:02 34° E 22:10:08 10° NNE
Cosmos 540 Rocket 3.5 22:07:45 12° SSW 22:12:28 81° WNW 22:17:39 10° NNE
USA 306 3.5 22:10:38 10° WNW 22:11:19 16° WNW 22:11:19 16° WNW
Helios 1A 2.7 22:12:17 10° NNE 22:16:15 83° ESE 22:18:07 30° S
Cosmos 1953 Rocket 4.4 22:13:35 10° NNW 22:17:41 41° W 22:20:10 21° SSW
RESURS DK-1 2.2 22:15:08 10° NW 22:19:08 86° WSW 22:20:45 35° SSE
Cosmos 2279 Rocket 4.1 22:16:39 24° SSE 22:20:23 61° E 22:26:34 10° NNE
Aureole 1 Rocket 4.2 22:14:47 10° NNW 22:20:27 60° WSW 22:24:34 24° S
Cosmos 2322 Rocket 3.9 22:19:46 10° NW 22:23:58 22° WSW 22:27:37 12° SW
Cosmos 1707 2.7 22:23:33 32° SW 22:24:27 47° WNW 22:27:12 10° N
Cosmos 1634 Rocket 3.9 22:22:33 22° S 22:26:45 89° ESE 22:33:01 10° N
Cosmos 1937 Rocket 3.5 22:22:12 10° NNW 22:27:23 78° ENE 22:30:09 28° SSE
TSX-5 3.8 22:26:18 10° NW 22:29:18 43° WSW 22:29:55 38° SSW
SL-16 R/B 4.1 22:26:50 10° NNW 22:31:36 26° NE 22:36:21 10° E
Geosat 3.9 22:27:03 10° NNE 22:32:06 82° ESE 22:35:38 20° SSW
CZ-2C R/B 3.9 22:28:02 10° NNE 22:32:27 54° E 22:34:15 32° SSE
Cosmos 2058 Rocket 3.3 22:30:59 24° SSW 22:33:31 63° WNW 22:37:50 10° N
Cosmos 468 Rocket 4.0 22:30:13 21° SSW 22:33:53 89° SE 22:39:10 10° NNE
GP-B 4.1 22:30:28 10° NNE 22:34:28 33° E 22:36:11 25° SE
Meteor 2-9 Rocket 4.1 22:33:04 10° NNW 22:38:30 88° W 22:41:25 29° S
Cosmos 44 4.4 22:34:01 10° NW 22:38:54 36° WSW 22:41:01 26° SSW
Lacrosse 4 Rocket 3.2 22:42:44 15° ESE 22:42:44 15° ESE 22:45:02 10° ENE
CZ-2C R/B 3.7 22:39:09 17° ESE 22:42:39 37° ENE 22:47:23 10° N
Cosmos 2237 Rocket 2.4 22:37:45 10° NNW 22:43:26 66° NE 22:47:08 22° SE
Cosmos 2266 Rocket 4.0 22:40:58 10° N 22:47:01 71° ENE 22:50:26 27° SSE
USA 234 4.0 22:41:53 10° ENE 22:47:35 31° SE 22:49:36 26° SSE
Cosmos 1980 3.8 22:42:01 10° NNW 22:47:42 74° NE 22:51:12 24° SE
SeaSat 1 4.0 22:43:49 10° ESE 22:48:04 31° NE 22:52:21 10° NNW
Cosmos 1470 2.8 22:45:22 10° NNW 22:48:35 51° W 22:49:19 41° SW
CZ-4C R/B 4.3 22:45:08 10° WNW 22:50:04 31° N 22:56:17 10° ENE
ATLAS 2AS CENTAUR R/B 4.1 22:45:21 10° NW 22:51:40 38° NNE 22:57:55 10° E
Intercosmos 24 4.4 22:48:27 10° N 22:52:15 43° ENE 22:53:30 31° ESE
ARIANE 5 R/B 2.7 22:52:41 35° S 22:54:30 72° WSW 22:59:00 10° NNW
ALOS 2 2.5 22:54:46 36° S 22:56:32 82° WSW 23:00:58 10° NNW
COSMOS 2428 3.0 22:51:24 10° NW 22:56:56 53° WSW 22:59:34 29° S
Cosmos 2227 Rocket 3.8 22:55:49 17° SE 22:57:39 20° E 23:01:37 10° NE
Helios 1B rocket 3.3 22:58:18 25° SW 22:59:14 29° W 23:02:22 10° NW
Cosmos 1898 Rocket 4.0 22:57:25 10° NW 23:02:21 45° WSW 23:04:34 29° SSW
ISS -2.0 22:59:37 10° W 23:01:10 20° WSW 23:01:10 20° WSW
BlueWalker 3 4.2 23:05:21 11° E 23:05:21 11° E 23:05:38 10° E
Cosmos 2263 Rocket 4.1 23:03:56 12° ESE 23:05:51 15° E 23:08:47 10° ENE
CZ-2C R/B 3.8 23:01:08 10° NNE 23:06:42 46° E 23:09:26 28° SSE
Meteor 1-11 Rocket 3.7 23:01:42 10° NNW 23:07:24 80° WSW 23:10:10 31° S
Cosmos 1766 Rocket 3.9 23:04:07 10° N 23:08:21 53° ENE 23:10:08 31° SE
SAR-Lupe-2 3.3 23:10:57 55° SSW 23:11:32 70° WSW 23:14:51 10° NNW
Meteor 1-10 Rocket 4.3 23:11:29 29° S 23:14:39 84° ESE 23:20:39 10° NNE
Cosmos 1238 Rocket 3.6 23:14:04 33° SE 23:15:20 44° E 23:19:33 10° NNE
PSLV R/B 3.5 23:11:17 10° NNE 23:15:36 80° ESE 23:17:16 38° S
Cosmos 1655 Rocket 4.2 23:14:16 10° N 23:20:30 66° ENE 23:24:14 25° SSE
Alouette 2 Rocket 3.7 23:22:31 10° N 23:26:15 69° ENE 23:28:18 31° SSE
NOSS 0 Rocket 4.5 23:22:19 10° NW 23:28:07 44° WSW 23:30:48 28° SSW
Meteor 1-27 Rocket 3.8 23:25:49 31° S 23:28:45 74° E 23:34:28 10° NNE
Meteor 2-10 Rocket 4.0 23:23:21 10° N 23:28:50 60° ENE 23:32:13 24° SE
Cosmos 841 Rocket 3.8 23:27:23 23° SW 23:30:40 65° WNW 23:35:55 10° NNE
Cosmos 2297 Rocket 2.2 23:27:59 31° S 23:30:43 68° ESE 23:36:22 10° NE
Cosmos 1975 4.1 23:29:30 10° NW 23:32:33 24° W 23:33:29 22° WSW
CZ-4C R/B 4.4 23:38:12 10° NE 23:41:07 26° E 23:41:47 24° ESE
Cosmos 2221 3.6 23:39:35 22° WSW 23:41:38 35° WNW 23:45:32 10° N
Cosmos 158 Rocket 4.4 23:39:40 31° SSE 23:41:54 51° ESE 23:47:03 10° NNE
Cosmos 1812 Rocket 4.2 23:39:58 27° SW 23:42:00 47° WNW 23:46:19 10° N
ACS3 Solar Sail 2.7 23:37:18 10° NNE 23:42:46 35° E 23:46:10 20° SE
MetOp-A 4.0 23:42:38 34° SSW 23:44:34 59° WSW 23:49:09 10° NNW
Landsat 5 4.0 23:43:18 10° NNE 23:47:15 45° E 23:48:28 34° SE
